Portsmouth, NH

2:30 PM EST on January 21, 2018 (GMT -0500)
Pease International Tradeport

Weather History for KPSM - April, 2014

Change the Weather History Date:

Friday, April 18, 2014

  Actual Average Record
Temperature  
Mean Temperature 34 °F -  
Max Temperature 43 °F 55 °F 92 °F (1976)
Min Temperature 25 °F 35 °F 24 °F (1979)
Degree Days  
Heating Degree Days 32    
Moisture  
Dew Point 28 °F    
Average Humidity 74    
Maximum Humidity 96    
Minimum Humidity 53    
Precipitation  
Precipitation 0.00 in - - ()
Sea Level Pressure  
Sea Level Pressure 30.49 in    
Wind  
Wind Speed 7 mph (East)    
Max Wind Speed 12 mph    
Max Gust Speed -    
Visibility 10 miles    
Events      
Averages and records for this station are not official NWS values.
T = Trace of Precipitation, MM = Missing Value Source: NWS Daily Summary

Daily Weather History Graph

Daily Weather History Graph

Search for Another Location

Airport or City:

Trip Planner

Search our weather history database for the weather conditions in past years. The results will help you decide how hot, cold, wet, or windy it might be!

Date:

Astronomy

Apr. 18, 2014 Rise Set
Actual Time 5:56 AM EDT 7:29 PM EDT
Civil Twilight 5:26 AM EDT 7:59 PM EDT
Nautical Twilight 4:50 AM EDT 8:35 PM EDT
Astronomical Twilight 4:12 AM EDT 9:14 PM EDT
Moon 11:15 PM EDT (4/18) 8:12 AM EDT (4/18)
Length of Visible Light 14h 32m
Length of Day
13h 32m
Waning Gibbous, 87% of the Moon is Illuminated
Apr 18
Waning Gibbous
Apr 22
Last Quarter
Apr 29
New
May 6
First Quarter
May 14
Full

Hourly Weather History & Observations

Time (EDT) Temp. Windchill Dew Point Humidity Pressure Visibility Wind Dir Wind Speed Gust Speed Precip Events Conditions
12:58 AM 29.7 °F 24.7 °F 24.3 °F 80% 30.67 in 10.0 mi North 4.6 mph - N/A   Scattered Clouds
1:58 AM 29.1 °F 25.4 °F 23.7 °F 80% 30.65 in 10.0 mi North 3.5 mph - N/A   Scattered Clouds
2:58 AM 28.2 °F 20.2 °F 24.1 °F 84% 30.64 in 10.0 mi North 8.1 mph - N/A   Partly Cloudy
3:58 AM 27.5 °F 19.3 °F 23.4 °F 84% 30.65 in 10.0 mi NNW 8.1 mph - N/A   Partly Cloudy
4:58 AM 25.3 °F 19.7 °F 22.1 °F 87% 30.64 in 10.0 mi North 4.6 mph - N/A   Partly Cloudy
5:58 AM 27.7 °F 21.3 °F 22.8 °F 82% 30.61 in 10.0 mi NNE 5.8 mph - N/A   Mostly Cloudy
6:58 AM 29.7 °F 22.8 °F 23.9 °F 79% 30.58 in 10.0 mi NNE 6.9 mph - N/A   Mostly Cloudy
7:58 AM 34.0 °F 27.2 °F 26.8 °F 75% 30.58 in 10.0 mi NNE 8.1 mph - N/A   Mostly Cloudy
8:28 AM 35.6 °F 28.6 °F 28.4 °F 75% 30.54 in 10.0 mi ENE 9.2 mph - N/A   Mostly Cloudy
8:58 AM 37.6 °F 31.0 °F 30.2 °F 75% 30.58 in 10.0 mi NE 9.2 mph - N/A   Overcast
9:58 AM 39.0 °F 33.4 °F 30.6 °F 72% 30.59 in 10.0 mi ENE 8.1 mph - N/A   Overcast
10:58 AM 40.8 °F 34.1 °F 28.4 °F 61% 30.58 in 10.0 mi East 11.5 mph - N/A   Overcast
11:58 AM 42.4 °F 36.5 °F 26.4 °F 53% 30.53 in 10.0 mi ESE 10.4 mph - N/A   Overcast
12:58 PM 41.4 °F 36.2 °F 27.7 °F 58% 30.50 in 10.0 mi ESE 8.1 mph - N/A   Overcast
1:28 PM 41.0 °F 35.2 °F 28.4 °F 61% 30.46 in 10.0 mi East 9.2 mph - N/A   Mostly Cloudy
1:58 PM 41.7 °F 37.3 °F 27.3 °F 57% 30.48 in 10.0 mi Variable 6.9 mph - N/A   Overcast
2:58 PM 40.8 °F 34.5 °F 28.0 °F 60% 30.45 in 10.0 mi ESE 10.4 mph - N/A   Overcast
3:58 PM 40.8 °F 35.6 °F 28.0 °F 60% 30.44 in 10.0 mi South 8.1 mph - N/A   Overcast
4:58 PM 39.6 °F 34.0 °F 28.4 °F 64% 30.40 in 10.0 mi ESE 8.1 mph - N/A   Overcast
5:58 PM 38.5 °F 35.0 °F 28.8 °F 68% 30.37 in 10.0 mi SSE 4.6 mph - N/A   Overcast
6:58 PM 37.6 °F 31.6 °F 28.8 °F 70% 30.33 in 10.0 mi ESE 8.1 mph - N/A   Overcast
7:58 PM 36.5 °F 31.8 °F 30.0 °F 77% 30.32 in 10.0 mi SE 5.8 mph - N/A   Mostly Cloudy
8:58 PM 35.4 °F 31.5 °F 30.6 °F 82% 30.32 in 10.0 mi SSE 4.6 mph - N/A   Mostly Cloudy
9:58 PM 34.3 °F 30.2 °F 30.7 °F 87% 30.29 in 10.0 mi SSE 4.6 mph - N/A   Mostly Cloudy
10:58 PM 34.3 °F - 31.6 °F 90% 30.29 in 10.0 mi South 2.3 mph - N/A   Mostly Cloudy
11:58 PM 33.3 °F - 32.2 °F 96% 30.27 in 10.0 mi SW 2.3 mph - N/A   Mostly Cloudy